Regional Weather Roundup
Issued by NWS

Home | Current Version | Previous Version | Text Only | Print | Product List | Glossary Off
Versions: 1 2 3 4 5 6 7 8 9 10 11 12 13 14 15 16 17 18 19 20 21 22 23 24 25 26 27 28 29 30 31 32 33 34 35 36 37 38 39 40 41 42 43 44 45 46 47 48 49 50

000
ASUS43 KBIS 262310
RWRND

NORTH DAKOTA REGIONAL WEATHER ROUNDUP
NATIONAL WEATHER SERVICE BISMARCK ND
500 PM CST SUN FEB 26 2017

NOTE: "FAIR" INDICATES FEW OR NO CLOUDS BELOW 12,000 FEET WITH NO
SIGNIFICANT WEATHER AND/OR OBSTRUCTIONS TO VISIBILITY.


NDZ001>003-009>011-017-270000-
NORTHWEST NORTH DAKOTA

CITY           SKY/WX    TMP DP  RH WIND       PRES   REMARKS
WILLISTON      PTSUNNY   23  14  68 W9        29.79R WCI  13
MINOT          FAIR      21   9  59 SW9       29.78R WCI  11
MINOT AFB      SUNNY     19  11  71 SW8       29.78R WCI   9
$$

NDZ018>021-031>035-040>046-270000-
SOUTHWEST NORTH DAKOTA

CITY           SKY/WX    TMP DP  RH WIND       PRES   REMARKS
BISMARCK       FAIR      21  15  78 E9        29.81R WCI  11
DICKINSON      CLOUDY    26  17  68 N13       29.72R WCI  15
GARRISON         N/A     20  13  74 SW5       29.79R WCI  13
HETTINGER ARPT CLOUDY    33  20  58 W21G30    29.73R
$$

NDZ004>008-012>016-024-026-027-054-270000-
NORTHEAST NORTH DAKOTA

CITY           SKY/WX    TMP DP  RH WIND       PRES   REMARKS
GRAND FORKS    SUNNY     18   4  54 SW10      29.87R WCI   6
GRND FRKS AFB  SUNNY     18   7  62 SW8       29.87R WCI   8
DEVILS LAKE    FAIR      13   8  81 SW8       29.83R WCI   2
$$

NDZ022-023-025-028>030-036>039-047>053-270000-
SOUTHEAST NORTH DAKOTA

CITY           SKY/WX    TMP DP  RH WIND       PRES   REMARKS
FARGO          CLOUDY    19   9  65 CALM      29.90R
JAMESTOWN      FLURRIES  21  15  78 SW7       29.82R WCI  12
$$




USA.gov is the U.S. government's official web portal to all federal, state and local government web resources and services.